logo tempoitalia

Diretta Meteo Castres-Mazamet, Francialunedì 23 maggio ore 13:30

Mappa
Sereno 18 °C Molto Nuvoloso 24 Ore: T.min 17 T.max 34
Ponente Ovest/Nord-Ovest Km/h 18.5 Punto di rugiada: 14 °C Umidità: 77% Visibilità: 10 Km
Il sole sorge alle: 06:16 Il sole tramonta alle: 21:18
23 Maggio 2022 13:30 tempo osservato: Molto Nuvoloso Molto Nuvoloso 18 77 1012 vento: Nord O/NO 18.5
23 Maggio 2022 13:00 tempo osservato: Molto Nuvoloso Molto Nuvoloso 18 77 1012 vento: Nord O/NO 20.3
23 Maggio 2022 12:30 tempo osservato: Coperto Coperto 19 72 1012 vento: Nord O/NO 16.7
23 Maggio 2022 12:00 tempo osservato: Coperto Coperto 18 77 1012 vento: Nord O 18.5
23 Maggio 2022 11:30 tempo osservato: Coperto Coperto 18 77 1012 vento: Nord O 18.5
23 Maggio 2022 11:00 tempo osservato: Coperto Coperto 18 77 1012 vento: Nord O 14.8
23 Maggio 2022 10:30 tempo osservato: Coperto Coperto 17 82 1012 vento: Nord O 13
23 Maggio 2022 10:00 tempo osservato: Coperto Coperto 17 82 1012 vento: Nord O/NO 18.5
23 Maggio 2022 09:30 tempo osservato: Coperto Coperto 17 82 1011 vento: Nord O 22.2
23 Maggio 2022 09:00 tempo osservato: Coperto Coperto 18 82 1011 vento: Nord O 18.5
23 Maggio 2022 08:30 tempo osservato: Coperto Coperto 18 82 1011 vento: Nord O 18.5
23 Maggio 2022 08:00 tempo osservato: Coperto Coperto 18 82 1011 vento: Nord O 20.3
23 Maggio 2022 07:30 tempo osservato: Coperto Coperto 18 82 1011 vento: Nord O 22.2
23 Maggio 2022 07:00 tempo osservato: Coperto Coperto 19 82 1011 vento: Nord O 16.7
23 Maggio 2022 06:30 tempo osservato: Coperto Coperto 19 77 1010 vento: Nord O 14.8
23 Maggio 2022 06:00 tempo osservato: Coperto Coperto 19 77 1010 vento: Nord O 11.1
23 Maggio 2022 05:30 tempo osservato: Coperto Coperto 19 77 1010 vento: Nord O 13
23 Maggio 2022 05:00 tempo osservato: Coperto Coperto 19 82 1011 vento: Nord O 11.1
23 Maggio 2022 04:30 tempo osservato: Coperto Coperto 19 82 1011 vento: Nord O 16.7
23 Maggio 2022 04:00 tempo osservato: Coperto Coperto 20 72 1011 vento: Nord O 16.7
23 Maggio 2022 03:30 tempo osservato: Coperto Coperto 20 72 1011 vento: Nord O 22.2
23 Maggio 2022 03:00 tempo osservato: Molto Nuvoloso Molto Nuvoloso 21 73 1010 vento: Nord O 25.9
23 Maggio 2022 02:30 tempo osservato: Sereno Sereno 22 78 1010 vento: Nord O/NO 9.3
23 Maggio 2022 02:00 tempo osservato: Sereno Sereno 21 77 1009 vento: Nord N 1.8
23 Maggio 2022 01:30 tempo osservato: Sereno Sereno 22 78 1009 vento: Nord SE 11.1
23 Maggio 2022 01:00 tempo osservato: Sereno Sereno 23 68 1009 vento: Nord NE 11.1
23 Maggio 2022 00:30 tempo osservato: Sereno Sereno 24 64 1010 vento: Nord O 13
23 Maggio 2022 00:00 tempo osservato: Sereno Sereno 24 69 1010 vento: Nord N 3.7
22 Maggio 2022 23:30 tempo osservato: Sereno Sereno 25 65 1009 vento: Nord N 18.5
22 Maggio 2022 23:00 tempo osservato: Sereno Sereno 26 61 1007 vento: Nord E/SE 29.6
22 Maggio 2022 22:30 tempo osservato: Sereno Sereno 26 57 1008 vento: Nord SE 29.6
22 Maggio 2022 22:00 tempo osservato: Sereno Sereno 26 61 1008 vento: Nord SE 29.6
22 Maggio 2022 21:30 tempo osservato: Sereno Sereno 26 61 1008 vento: Nord SE 9.3
22 Maggio 2022 21:00 tempo osservato: Sereno Sereno 27 61 1008 vento: Nord E/SE 9.3
22 Maggio 2022 20:30 tempo osservato: Sereno Sereno 27 65 1008 vento: Nord SE 13
22 Maggio 2022 20:00 tempo osservato: Sereno Sereno 29 54 1008 vento: Nord SE 9.3
22 Maggio 2022 19:30 tempo osservato: Sereno Sereno 29 54 1008 vento: Nord SE 18.5
22 Maggio 2022 19:00 tempo osservato: Sereno Sereno 30 51 1008 vento: Nord E/SE 18.5
22 Maggio 2022 18:30 tempo osservato: Sereno Sereno 30 55 1009 vento: Nord N 5.5
22 Maggio 2022 18:00 tempo osservato: Sereno Sereno 30 51 1009 vento: Nord O 7.4
22 Maggio 2022 17:30 tempo osservato: Sereno Sereno 31 45 1009 vento: Nord O 11.1
22 Maggio 2022 17:00 tempo osservato: Sereno Sereno 33 38 1009 vento: Nord SE 13
22 Maggio 2022 16:30 tempo osservato: Sereno Sereno 33 41 1009 vento: Nord SE 20.3
22 Maggio 2022 16:00 tempo osservato: Sereno Sereno 33 41 1009 vento: Nord SE 24
22 Maggio 2022 15:30 tempo osservato: Sereno Sereno 32 40 1009 vento: Nord E/SE 27.8
22 Maggio 2022 15:00 tempo osservato: Sereno Sereno 33 38 1010 vento: Nord SE 20.3
22 Maggio 2022 14:30 tempo osservato: Sereno Sereno 34 34 1010 vento: Nord E/SE 18.5
22 Maggio 2022 14:00 tempo osservato: Sereno Sereno 32 35 1011 vento: Nord S/SE 11.1